Weather in Liubotyn

Ukraine / Kharkiv Region     49°56′53″N   35°55′46″E
temp.,
°C
wind,
m/s
gust,
m/s
humid.,
%
clouds,
%
prec.,
mm/h
press.,
hPa
HPBL,
m
11 april, sun
sun1100:00+6n34550 0.0 102659
03:00+5nne34610 0.0 102770
06:00+4nne36620 0.0 1028104
09:00+9ne48470 0.0 1029573
12:00+12ne673415 0.0 10281269
15:00+14ne67305 0.0 10261345
18:00+13ne6836100 0.0 10261011
21:00+10ne51245100 0.0 1026491
12 april, mon
mon1200:00+8ne51054100 0.0 1026375
03:00+7ne51063100 0.0 1025389
06:00+7ne51076100 0.0 1024354
09:00+10ene5981100 0.0 1023380
12:00+16ene685973 0.0 1022776
15:00+21e684190 0.0 10201432
18:00+20ese51041100 0.0 1020630
21:00+15se385760 0.0 1021229
13 april, tue
tue1300:00+12se367359 0.0 1021116
03:00+11se237899 0.0 102154
06:00+10e2383100 0.0 102166
09:00+12ese5978100 0.0 1021558
12:00+16se61062100 0.1 10211366
15:00+17sse585761 0.1 10201191
18:00+16ssw3466100 0.0 1020308
21:00+13sse2474100 0.1 1020171
14 april, wed
wed1400:00+12sse247897 0.0 1020144
03:00+11sse2381100 0.0 102084
06:00+11sse2282100 0.0 101948
09:00+12ese2378100 0.1 1018300
12:00+14se2470100 0.1 1018644
15:00+13sse71080100 2.6 1017733
18:00+12ssw3677100 2.2 1016471
21:00+10se118394 2.3 101614
15 april, thu
thu1500:00+9sw1190100 0.0 101614
03:00+9wsw018991 0.0 101611
06:00+8se0089100 0.0 101610
09:00+12sw007130 0.0 1016289
12:00+16e1251100 0.0 10151241
15:00+17ene1141100 0.0 10141674
18:00+17ene014199 0.0 10131713
21:00+14nw2253100 0.0 101222